Back to catalog

SL-12 R/B

AUX MOTOR

AliveHEO
NORAD 22066·ROCKET BODY·🇷🇺 Russia

Launched Jul 30, 1992 from Baikonur Cosmodrome

Loading…

Next Passes (next 24 hours)

TLE

FreshSource: Space-Track

Epoch: Sep 14, 2026, 01:27 UTC

1 22066U 92047G   26257.06082071  .00000222  00000-0  45396-3 0  9990
2 22066  64.7239  85.5630 5643804 152.8819 253.7334  4.38208108529760

Track SL-12 R/B in real time with AllMySat

Download on the App Store